• In Russia
  • List of Countries
  • For 7 days
  • Water Temperature
  • Satellite Maps
  • Weather Map
  • Weather Widgets
  • user-avatar
    Login

    Hourly Weather Torokbalint

    Today, 24 August, Thursday

    Time Temperature Precipitation Wind Pressure Humidity
    00:00 +15°C° 0 mm 1 mps 746 mmHg 48%
    01:00 +15°C° 0 mm 1 mps 746 mmHg 48%
    02:00 +15°C° 0 mm 1 mps 746 mmHg 49%
    03:00 +15°C° 0 mm 1 mps 746 mmHg 50%
    04:00 +14°C° 0 mm 1 mps 746 mmHg 51%
    05:00 +16°C° 0 mm 1 mps 746 mmHg 48%
    06:00 +18°C° 0 mm 1 mps 747 mmHg 46%
    07:00 +19°C° 0 mm 1 mps 747 mmHg 43%
    08:00 +21°C° 0 mm 1 mps 747 mmHg 40%
    09:00 +23°C° 0 mm 2 mps 747 mmHg 36%
    10:00 +25°C° 0 mm 2 mps 747 mmHg 33%
    11:00 +27°C° 0 mm 2 mps 747 mmHg 31%
    12:00 +28°C° 0 mm 2 mps 747 mmHg 29%
    13:00 +29°C° 0 mm 3 mps 746 mmHg 26%
    14:00 +30°C° 0 mm 2 mps 746 mmHg 26%
    15:00 +30°C° 0 mm 2 mps 746 mmHg 25%
    16:00 +31°C° 0 mm 2 mps 746 mmHg 24%
    17:00 +29°C° 0 mm 2 mps 746 mmHg 28%
    18:00 +27°C° 0 mm 1 mps 746 mmHg 31%
    19:00 +25°C° 0 mm 1 mps 745 mmHg 35%
    20:00 +24°C° 0 mm 1 mps 746 mmHg 37%
    21:00 +23°C° 0 mm 1 mps 746 mmHg 39%
    22:00 +23°C° 0 mm 1 mps 746 mmHg 41%
    23:00 +22°C° 0 mm 1 mps 746 mmHg 43%

    Tomorrow, 25 August, Friday

    Time Temperature Precipitation Wind Pressure Humidity
    00:00 +21°C° 0 mm 1 mps 746 mmHg 46%
    01:00 +21°C° 0 mm 1 mps 746 mmHg 49%
    02:00 +21°C° 0 mm 1 mps 746 mmHg 50%
    03:00 +20°C° 0 mm 1 mps 746 mmHg 52%
    04:00 +20°C° 0 mm 1 mps 746 mmHg 54%
    05:00 +21°C° 0 mm 1 mps 746 mmHg 52%
    06:00 +22°C° 0 mm 1 mps 747 mmHg 50%
    07:00 +23°C° 0 mm 1 mps 747 mmHg 48%
    08:00 +25°C° 0 mm 1 mps 747 mmHg 43%
    09:00 +28°C° 0 mm 2 mps 747 mmHg 38%
    10:00 +30°C° 0 mm 2 mps 747 mmHg 33%
    11:00 +32°C° 0 mm 2 mps 747 mmHg 30%
    12:00 +34°C° 0 mm 3 mps 746 mmHg 27%
    13:00 +35°C° 0 mm 3 mps 746 mmHg 25%
    14:00 +36°C° 0 mm 3 mps 746 mmHg 24%
    15:00 +36°C° 0 mm 3 mps 745 mmHg 23%
    16:00 +36°C° 0 mm 3 mps 745 mmHg 23%
    17:00 +34°C° 0 mm 2 mps 745 mmHg 27%
    18:00 +31°C° 0 mm 2 mps 745 mmHg 31%
    19:00 +29°C° 0 mm 2 mps 745 mmHg 35%
    20:00 +28°C° 0 mm 2 mps 745 mmHg 37%
    21:00 +27°C° 0 mm 2 mps 745 mmHg 40%
    22:00 +26°C° 0 mm 2 mps 745 mmHg 43%
    23:00 +25°C° 0 mm 2 mps 745 mmHg 44%

    Day after tomorrow, 26 August, Saturday

    Time Temperature Precipitation Wind Pressure Humidity
    00:00 +25°C° 0 mm 2 mps 745 mmHg 46%
    01:00 +24°C° 0 mm 2 mps 745 mmHg 47%
    02:00 +24°C° 0 mm 1 mps 745 mmHg 49%
    03:00 +23°C° 0 mm 1 mps 745 mmHg 50%
    04:00 +23°C° 0 mm 1 mps 745 mmHg 52%
    05:00 +24°C° 0 mm 1 mps 745 mmHg 50%
    06:00 +25°C° 0 mm 1 mps 745 mmHg 48%
    07:00 +26°C° 0 mm 1 mps 745 mmHg 46%
    08:00 +28°C° 0 mm 1 mps 746 mmHg 41%
    09:00 +31°C° 0 mm 1 mps 746 mmHg 37%
    10:00 +33°C° 0 mm 1 mps 746 mmHg 32%
    11:00 +34°C° 0 mm 1 mps 746 mmHg 29%
    12:00 +35°C° 0 mm 1 mps 745 mmHg 27%
    13:00 +37°C° 0 mm 2 mps 745 mmHg 24%
    14:00 +37°C° 0 mm 2 mps 745 mmHg 23%
    15:00 +37°C° 0 mm 2 mps 744 mmHg 22%
    16:00 +38°C° 0 mm 2 mps 744 mmHg 21%
    17:00 +34°C° 0 mm 1 mps 744 mmHg 25%
    18:00 +32°C° 0 mm 1 mps 744 mmHg 28%
    19:00 +30°C° 0 mm 1 mps 744 mmHg 31%
    20:00 +29°C° 0 mm 1 mps 744 mmHg 33%
    21:00 +28°C° 0 mm 1 mps 744 mmHg 34%
    22:00 +27°C° 0 mm 2 mps 744 mmHg 35%
    23:00 +27°C° 0 mm 1 mps 744 mmHg 36%

    27 August, Sunday

    Time Temperature Precipitation Wind Pressure Humidity
    00:00 +26°C° 0 mm 1 mps 744 mmHg 37%
    01:00 +25°C° 0 mm 1 mps 744 mmHg 38%
    02:00 +25°C° 0 mm 1 mps 744 mmHg 39%
    03:00 +24°C° 0 mm 1 mps 744 mmHg 40%
    04:00 +24°C° 0 mm 1 mps 744 mmHg 42%
    05:00 +24°C° 0 mm 1 mps 744 mmHg 40%
    06:00 +25°C° 0 mm 1 mps 744 mmHg 39%
    07:00 +26°C° 0 mm 1 mps 745 mmHg 38%
    08:00 +29°C° 0 mm 1 mps 745 mmHg 34%
    09:00 +31°C° 0 mm 1 mps 745 mmHg 29%
    10:00 +33°C° 0 mm 1 mps 745 mmHg 25%
    11:00 +35°C° 0 mm 1 mps 745 mmHg 23%
    12:00 +36°C° 0 mm 1 mps 744 mmHg 21%
    13:00 +38°C° 0 mm 2 mps 744 mmHg 19%
    14:00 +37°C° 0 mm 1 mps 744 mmHg 19%
    15:00 +39°C° 0 mm 1 mps 743 mmHg 19%
    16:00 +39°C° 0 mm 1 mps 743 mmHg 19%
    17:00 +35°C° 0.1 mm 1 mps 743 mmHg 23%
    18:00 +33°C° 0.1 mm 1 mps 743 mmHg 26%
    19:00 +31°C° 0.1 mm 1 mps 743 mmHg 30%
    20:00 +30°C° 0.4 mm 1 mps 743 mmHg 32%
    21:00 +29°C° 0.4 mm 1 mps 743 mmHg 35%
    22:00 +28°C° 0.4 mm 1 mps 743 mmHg 37%
    23:00 +27°C° 0.1 mm 1 mps 743 mmHg 38%

    28 August, Monday

    Time Temperature Precipitation Wind Pressure Humidity
    00:00 +26°C° 0.1 mm 1 mps 743 mmHg 39%
    01:00 +26°C° 0.1 mm 1 mps 742 mmHg 41%
    02:00 +25°C° 0 mm 1 mps 742 mmHg 43%
    03:00 +25°C° 0 mm 1 mps 742 mmHg 45%
    04:00 +24°C° 0 mm 1 mps 742 mmHg 47%
    05:00 +25°C° 0 mm 2 mps 743 mmHg 47%
    06:00 +26°C° 0 mm 2 mps 743 mmHg 47%
    07:00 +27°C° 0 mm 2 mps 744 mmHg 47%
    08:00 +28°C° 0 mm 2 mps 744 mmHg 45%
    09:00 +30°C° 0 mm 2 mps 744 mmHg 43%
    10:00 +31°C° 0 mm 3 mps 744 mmHg 40%
    11:00 +33°C° 0 mm 3 mps 744 mmHg 37%
    12:00 +34°C° 0 mm 4 mps 743 mmHg 34%
    13:00 +35°C° 0 mm 4 mps 743 mmHg 31%
    14:00 +35°C° 0 mm 4 mps 743 mmHg 31%
    15:00 +35°C° 0 mm 5 mps 743 mmHg 31%
    16:00 +35°C° 0 mm 5 mps 743 mmHg 30%
    17:00 +34°C° 0 mm 4 mps 743 mmHg 34%
    18:00 +32°C° 0 mm 4 mps 743 mmHg 39%
    19:00 +29°C° 0 mm 3 mps 743 mmHg 43%
    20:00 +28°C° 0 mm 3 mps 744 mmHg 46%
    21:00 +27°C° 0 mm 3 mps 744 mmHg 50%
    22:00 +26°C° 0 mm 3 mps 744 mmHg 53%
    23:00 +25°C° 0 mm 2 mps 744 mmHg 55%

    29 August, Tuesday

    Time Temperature Precipitation Wind Pressure Humidity
    00:00 +25°C° 0 mm 2 mps 744 mmHg 57%
    01:00 +24°C° 0 mm 2 mps 744 mmHg 59%
    02:00 +23°C° 0 mm 2 mps 745 mmHg 62%
    03:00 +23°C° 0 mm 2 mps 745 mmHg 64%
    04:00 +21°C° 0 mm 2 mps 745 mmHg 67%
    05:00 +23°C° 0 mm 2 mps 745 mmHg 64%
    06:00 +24°C° 0 mm 2 mps 745 mmHg 62%
    07:00 +24°C° 0 mm 2 mps 746 mmHg 60%
    08:00 +26°C° 0 mm 1 mps 746 mmHg 53%
    09:00 +28°C° 0 mm 1 mps 746 mmHg 47%
    10:00 +29°C° 0 mm 1 mps 746 mmHg 41%
    11:00 +30°C° 0 mm 2 mps 745 mmHg 37%
    12:00 +31°C° 0 mm 2 mps 745 mmHg 34%
    13:00 +32°C° 0 mm 2 mps 745 mmHg 30%
    14:00 +34°C° 0 mm 2 mps 744 mmHg 29%
    15:00 +34°C° 0 mm 2 mps 744 mmHg 29%
    16:00 +34°C° 0 mm 2 mps 744 mmHg 28%
    17:00 +31°C° 0 mm 2 mps 744 mmHg 32%
    18:00 +29°C° 0 mm 2 mps 744 mmHg 36%
    19:00 +28°C° 0 mm 2 mps 744 mmHg 40%
    20:00 +27°C° 0 mm 2 mps 744 mmHg 42%
    21:00 +26°C° 0 mm 2 mps 744 mmHg 44%
    22:00 +25°C° 0 mm 1 mps 744 mmHg 47%
    23:00 +25°C° 0 mm 2 mps 744 mmHg 48%
    Show more